Miscellaneous Local Product
Issued by NWS Hastings, NE

Home | Current Version | Previous Version | Graphics & Text | Print | Product List | Glossary On
Versions: 1 2 3 4 5 6 7 8 9 10 11 12 13 14 15 16 17 18 19 20 21 22 23 24 25 26 27 28 29 30 31 32 33 34 35 36 37 38 39 40 41 42 43 44 45 46 47 48 49 50
000
AXUS43 KGID 261702
MISGRI

GID CWA HOURLY WEATHER ROUNDUP
NATIONAL WEATHER SERVICE HASTINGS NE
1200 PM CDT SUN JUL 26 2015

NOTE: "FAIR" INDICATES FEW OR NO CLOUDS BELOW 12,000 FEET WITH NO
SIGNIFICANT WEATHER AND/OR OBSTRUCTIONS TO VISIBILITY.

...SOUTH CENTRAL NEBRASKA...

CITY           SKY/WX    TMP DP  RH WIND       PRES   REMARKS
GRAND ISLAND   SUNNY     82  73  74 SE6       29.94S
HASTINGS       SUNNY     82  74  76 CALM      29.94S
KEARNEY        SUNNY     82  73  74 SE7       29.94S
ORD            SUNNY     85  74  69 E7        29.91S HX  92
YORK           PTSUNNY   81  75  83 CALM      29.93S
AURORA         MOSUNNY   83  75  78 CALM      29.93S HX  90
LEXINGTON      MOSUNNY   80  74  82 CALM      29.96S
HOLDREGE       SUNNY     82  69  63 CALM      29.95R
HEBRON         SUNNY     85  73  67 SW6       29.92S HX  91

...NEBRASKA PANHANDLE...

CITY           SKY/WX    TMP DP  RH WIND       PRES   REMARKS
CHADRON        SUNNY     86  65  49 VRB5      29.92S
ALLIANCE       SUNNY     92  62  36 S16G23    29.97F HX  92
SCOTTSBLUFF    SUNNY     87  59  38 SW3       29.98S
SIDNEY         MOSUNNY   92  57  30 SW12      30.03R HX  90

...WESTERN AND NORTH CENTRAL NEBRASKA...

CITY           SKY/WX    TMP DP  RH WIND       PRES   REMARKS
VALENTINE      SUNNY     90  62  39 E7        29.93S HX  90
AINSWORTH      SUNNY     86  67  54 E7        29.95R
ONEILL         SUNNY     82  74  77 E3        29.93R
BROKEN BOW     SUNNY     88  73  61 VRB5      29.94S HX  95
IMPERIAL       MOSUNNY   83  69  62 VRB3      29.99S
NORTH PLATTE   SUNNY     86  71  60 VRB3      29.96S HX  91
MCCOOK         SUNNY     85  70  60 CALM      29.96R

...EASTERN NEBRASKA...

CITY           SKY/WX    TMP DP  RH WIND       PRES   REMARKS
NORFOLK        CLOUDY    80  72  76 S3        29.92S
SO SIOUX CITY  SUNNY     82  72  71 W3        29.90S
TEKAMAH        MOSUNNY   83  75  77 CALM      29.89S HX  90
COLUMBUS       CLOUDY    82  72  69 CALM      29.91S
ALBION         CLOUDY    78  71  77 CALM      29.93S
OMAHA EPPLEY   MOSUNNY   83  72  69 S8        29.89F
OFFUTT AFB     SUNNY     83  74  75 SW7       29.89F
MILLARD        MOSUNNY   82  74  78 S7        29.90S
LINCOLN        MOSUNNY   84  75  74 VRB3      29.90F HX  92
BEATRICE       MOSUNNY   84  76  78 NW7       29.91R HX  92
FALLS CITY     MOSUNNY   83  76  79 SE9       29.90F HX  91

...NORTHERN KANSAS...

CITY           SKY/WX    TMP DP  RH WIND       PRES   REMARKS
GOODLAND       SUNNY     89  65  44 CALM      29.99F HX  91
HILL CITY      SUNNY     87  69  54 VRB5      29.95R HX  91
NORTON         SUNNY     86  66  51 E6        29.94S
SMITH CENTER   SUNNY     84  70  61 S6        29.94S
HAYS           SUNNY     86  66  51 S7        29.95S
RUSSELL        MOSUNNY   87  68  52 S8        29.93F HX  90
CONCORDIA      SUNNY     87  70  56 SW7       29.93S HX  92
SALINA         MOSUNNY   88  70  55 CALM      29.92F HX  93
TOPEKA         MOSUNNY   88  74  63 NE5       29.90F HX  96



USA.gov is the U.S. government's official web portal to all federal, state and local government web resources and services.